Weather History for Mackinac Island, MI

Change the Weather History Date:

Friday, March 1, 2013

  Actual Average Record
Temperature  
Mean Temperature 19 °F -  
Max Temperature 26 °F 26 °F 46 °F (1998)
Min Temperature 12 °F 14 °F -15 °F (1980)
Degree Days  
Heating Degree Days 46    
Moisture  
Dew Point 9 °F    
Average Humidity 65    
Maximum Humidity 80    
Minimum Humidity 50    
Precipitation  
Precipitation 0.00 in - - ()
Sea Level Pressure  
Sea Level Pressure 30.17 in    
Wind  
Wind Speed 11 mph (North)    
Max Wind Speed 15 mph    
Max Gust Speed 24 mph    
Visibility 10 miles    
Events Snow    
Averages and records for this station are not official NWS values.
T = Trace of Precipitation, MM = Missing Value Source: NWS Daily Summary

Daily Weather History Graph

Daily Weather History Graph

Search for Another Location

Airport:

Trip Planner

Search our weather history database for the weather conditions in past years. The results will help you decide how hot, cold, wet, or windy it might be!

Date:

Astronomy

Mar. 01, 2013 Rise Set
Actual Time 7:16 AM EST 6:25 PM EST
Civil Twilight 6:46 AM EST 6:55 PM EST
Nautical Twilight 6:12 AM EST 7:30 PM EST
Astronomical Twilight 5:37 AM EST 8:04 PM EST
Moon 11:15 PM EST (3/1) 8:47 AM EST (3/1)
Length of Visible Light 12h 08m
Length of Day
11h 08m
Waning Gibbous, 83% of the Moon is Illuminated
Mar 1
Waning Gibbous
Mar 4
Last Quarter
Mar 11
New
Mar 19
First Quarter
Mar 27
Full

Hourly Weather History & Observations

Time (EST) Temp. Windchill Dew Point Humidity Pressure Visibility Wind Dir Wind Speed Gust Speed Precip Events Conditions
12:13 AM 18.3 °F 5.2 °F 10.2 °F 71% 30.08 in 10.0 mi North 12.7 mph 19.6 mph N/A   Clear
12:33 AM 18.0 °F 3.6 °F 9.5 °F 70% 30.09 in 10.0 mi North 15.0 mph 24.2 mph N/A   Clear
12:53 AM 17.6 °F 3.7 °F 9.5 °F 71% 30.09 in 10.0 mi NNE 13.8 mph 21.9 mph N/A   Clear
1:13 AM 17.2 °F 3.3 °F 9.1 °F 71% 30.09 in 10.0 mi North 13.8 mph 21.9 mph N/A   Clear
1:33 AM 16.7 °F 2.6 °F 9.0 °F 72% 30.10 in 10.0 mi NNE 13.8 mph 21.9 mph N/A   Clear
1:53 AM 16.5 °F 3.6 °F 8.8 °F 72% 30.10 in 10.0 mi North 11.5 mph 17.3 mph N/A   Clear
2:13 AM 16.2 °F 3.2 °F 8.6 °F 72% 30.10 in 10.0 mi North 11.5 mph 19.6 mph N/A   Clear
2:33 AM 15.8 °F 1.4 °F 8.6 °F 73% 30.11 in 10.0 mi North 13.8 mph 17.3 mph N/A   Clear
3:33 AM 15.4 °F 0.4 °F 8.2 °F 73% 30.11 in 10.0 mi NNE 15.0 mph 24.2 mph N/A   Clear
3:53 AM 14.9 °F -0.3 °F 8.4 °F 76% 30.11 in 10.0 mi NNE 15.0 mph - N/A   Clear
4:33 AM 14.4 °F 1.6 °F 8.1 °F 76% 30.12 in 10.0 mi North 10.4 mph - N/A   Clear
4:53 AM 14.0 °F 2.0 °F 7.7 °F 76% 30.13 in 10.0 mi NNE 9.2 mph - N/A   Clear
5:14 AM 13.5 °F 0.5 °F 7.7 °F 78% 30.14 in 10.0 mi North 10.4 mph - N/A   Clear
5:33 AM 13.3 °F 2.0 °F 7.5 °F 78% 30.15 in 10.0 mi North 8.1 mph - N/A   Clear
5:53 AM 12.9 °F 1.6 °F 7.3 °F 78% 30.15 in 10.0 mi North 8.1 mph - N/A   Clear
6:14 AM 12.6 °F -0.6 °F 7.3 °F 80% 30.16 in 10.0 mi North 10.4 mph - N/A   Clear
6:33 AM 12.2 °F -1.0 °F 7.2 °F 80% 30.16 in 10.0 mi NNE 10.4 mph - N/A   Clear
6:53 AM 12.7 °F -1.1 °F 7.5 °F 80% 30.17 in 10.0 mi NNE 11.5 mph - N/A   Mostly Cloudy
7:14 AM 13.1 °F 1.8 °F 7.5 °F 78% 30.17 in 10.0 mi North 8.1 mph - N/A   Overcast
7:33 AM 13.1 °F 1.8 °F 7.5 °F 78% 30.18 in 10.0 mi NNE 8.1 mph - N/A   Overcast
7:53 AM 13.5 °F 0.5 °F 7.3 °F 77% 30.19 in 10.0 mi North 10.4 mph - N/A   Overcast
8:14 AM 13.6 °F 0.7 °F 7.2 °F 75% 30.19 in 10.0 mi North 10.4 mph - N/A   Overcast
8:33 AM 14.0 °F 1.2 °F 7.2 °F 74% 30.19 in 10.0 mi North 10.4 mph 16.1 mph N/A   Overcast
9:14 AM 14.5 °F 2.7 °F 7.5 °F 74% 30.20 in 10.0 mi North 9.2 mph - N/A Snow Light Snow
9:33 AM 14.9 °F 1.6 °F 7.3 °F 72% 30.20 in 10.0 mi North 11.5 mph 18.4 mph N/A   Overcast
9:53 AM 15.8 °F 4.2 °F 7.5 °F 70% 30.20 in 10.0 mi North 9.2 mph 16.1 mph N/A   Overcast
10:13 AM 16.7 °F 5.3 °F 7.5 °F 67% 30.20 in 10.0 mi North 9.2 mph - N/A   Overcast
10:33 AM 18.5 °F 7.5 °F 7.3 °F 62% 30.20 in 10.0 mi North 9.2 mph - N/A   Scattered Clouds
11:14 AM 19.2 °F 7.0 °F 6.6 °F 58% 30.20 in 10.0 mi North 11.5 mph - N/A   Clear
11:33 AM 20.8 °F 12.1 °F 7.9 °F 57% 30.20 in 10.0 mi NNW 6.9 mph - N/A   Clear
12:13 PM 22.6 °F 11.9 °F 7.9 °F 53% 30.20 in 10.0 mi North 10.4 mph - N/A   Clear
12:33 PM 22.6 °F 11.9 °F 7.9 °F 53% 30.20 in 10.0 mi NNW 10.4 mph - N/A   Clear
12:54 PM 23.7 °F 12.6 °F 8.8 °F 53% 30.19 in 10.0 mi North 11.5 mph - N/A   Clear
1:13 PM 23.9 °F 13.5 °F 8.8 °F 53% 30.19 in 10.0 mi North 10.4 mph 16.1 mph N/A   Clear
1:33 PM 24.1 °F 13.7 °F 8.4 °F 51% 30.18 in 10.0 mi North 10.4 mph 16.1 mph N/A   Clear
1:54 PM 24.8 °F 14.6 °F 8.8 °F 51% 30.18 in 10.0 mi NNW 10.4 mph 16.1 mph N/A   Clear
2:13 PM 25.0 °F 13.1 °F 9.0 °F 51% 30.17 in 10.0 mi NNW 13.8 mph - N/A   Clear
2:33 PM 25.5 °F 15.5 °F 9.1 °F 50% 30.17 in 10.0 mi North 10.4 mph - N/A   Clear
2:54 PM 26.4 °F 15.0 °F 10.0 °F 50% 30.16 in 10.0 mi North 13.8 mph 18.4 mph N/A   Clear
3:13 PM 25.5 °F 15.5 °F 9.5 °F 51% 30.16 in 10.0 mi North 10.4 mph 18.4 mph N/A   Clear
3:33 PM 25.9 °F 14.3 °F 10.2 °F 52% 30.16 in 10.0 mi North 13.8 mph 18.4 mph N/A   Clear
3:54 PM 25.7 °F 16.4 °F 10.4 °F 52% 30.17 in 10.0 mi North 9.2 mph 16.1 mph N/A   Clear
4:13 PM 25.5 °F 16.2 °F 10.4 °F 53% 30.17 in 10.0 mi North 9.2 mph - N/A   Clear
4:33 PM 24.8 °F 15.3 °F 10.8 °F 55% 30.17 in 10.0 mi North 9.2 mph 16.1 mph N/A   Clear
5:13 PM 24.8 °F 14.0 °F 11.1 °F 56% 30.17 in 10.0 mi North 11.5 mph 17.3 mph N/A   Clear
5:33 PM 24.3 °F 14.6 °F 11.1 °F 57% 30.17 in 10.0 mi NNW 9.2 mph 16.1 mph N/A   Clear
5:53 PM 23.2 °F 12.6 °F 10.6 °F 59% 30.17 in 10.0 mi North 10.4 mph 18.4 mph N/A   Clear
6:13 PM 22.5 °F 12.4 °F 10.4 °F 60% 30.17 in 10.0 mi NNW 9.2 mph 17.3 mph N/A   Clear
6:33 PM 22.1 °F 10.6 °F 9.5 °F 58% 30.18 in 10.0 mi NNW 11.5 mph 17.3 mph N/A   Clear
6:53 PM 21.7 °F 10.2 °F 9.5 °F 59% 30.18 in 10.0 mi NNW 11.5 mph 16.1 mph N/A   Clear
7:13 PM 21.2 °F 10.9 °F 9.5 °F 61% 30.18 in 10.0 mi NNW 9.2 mph 16.1 mph N/A   Clear
7:33 PM 21.0 °F 9.3 °F 9.1 °F 60% 30.18 in 10.0 mi NNW 11.5 mph - N/A   Clear
7:53 PM 20.5 °F 10.8 °F 9.3 °F 62% 30.18 in 10.0 mi NNW 8.1 mph - N/A   Clear
8:13 PM 20.3 °F 9.0 °F 9.5 °F 63% 30.19 in 10.0 mi North 10.4 mph - N/A   Clear
8:33 PM 20.1 °F 8.8 °F 9.9 °F 64% 30.19 in 10.0 mi North 10.4 mph - N/A   Clear
8:53 PM 19.9 °F 7.9 °F 10.0 °F 65% 30.19 in 10.0 mi North 11.5 mph 16.1 mph N/A   Clear
9:13 PM 19.9 °F 10.1 °F 9.7 °F 64% 30.19 in 10.0 mi North 8.1 mph 16.1 mph N/A   Clear
9:33 PM 19.4 °F 6.0 °F 9.1 °F 64% 30.19 in 10.0 mi North 13.8 mph 19.6 mph N/A   Clear
9:53 PM 19.2 °F 7.7 °F 8.6 °F 63% 30.19 in 10.0 mi NNE 10.4 mph - N/A   Clear
10:13 PM 18.7 °F 7.0 °F 8.4 °F 64% 30.19 in 10.0 mi NNE 10.4 mph 17.3 mph N/A   Clear
10:53 PM 17.2 °F 5.2 °F 7.7 °F 66% 30.19 in 10.0 mi NNE 10.4 mph - N/A   Clear
11:13 PM 16.7 °F 4.5 °F 7.7 °F 68% 30.19 in 10.0 mi NNE 10.4 mph - N/A   Clear
11:33 PM 15.8 °F 2.1 °F 6.8 °F 68% 30.19 in 10.0 mi NNE 12.7 mph - N/A   Clear
11:53 PM 15.4 °F 3.0 °F 6.8 °F 69% 30.18 in 10.0 mi NNE 10.4 mph - N/A   Clear